RJZ1541 OJAQ-OJAQ

Flight info

Callsign RJZ1541
Flight time 1h 47m
Altitude 7000
Route VFR V5 V7
Aircraft C207/L-SBDFGLOTUV/C

Departure

Time 2026-05-07 15:25
Airport King Hussein International Airport (OJAQ)

Arrival

Time 2026-05-07 17:12
Airport King Hussein International Airport (OJAQ)
Time Latitude Longitude Altitude Speed Heading
2026-05-07 15:12 29.60834 35.01962 176 ft 0 kts 105°
2026-05-07 15:13 29.59814 35.01602 176 ft 0 kts 103°
2026-05-07 15:20 29.59836 35.01586 177 ft 5 kts 277°
2026-05-07 15:20 29.59837 35.01577 177 ft 3 kts 282°
2026-05-07 15:20 29.59822 35.01522 177 ft 20 kts 218°
2026-05-07 15:21 29.59796 35.01431 177 ft 0 kts 286°
2026-05-07 15:23 29.59796 35.01428 177 ft 3 kts 287°
2026-05-07 15:23 29.59799 35.01418 177 ft 1 kts 288°
2026-05-07 15:24 29.59802 35.01409 177 ft 2 kts 288°
2026-05-07 15:24 29.59813 35.01378 177 ft 6 kts 298°
2026-05-07 15:24 29.59856 35.01350 177 ft 8 kts 12°
2026-05-07 15:24 29.60098 35.01442 189 ft 69 kts 14°
2026-05-07 15:25 29.60585 35.01640 495 ft 79 kts
2026-05-07 15:25 29.61104 35.01797 862 ft 80 kts
2026-05-07 15:25 29.61658 35.01979 1171 ft 85 kts
2026-05-07 15:25 29.62237 35.02196 1472 ft 90 kts 11°
2026-05-07 15:26 29.62823 35.02480 1772 ft 93 kts 14°
2026-05-07 15:26 29.63411 35.02778 2070 ft 93 kts 12°
2026-05-07 15:26 29.64010 35.03049 2367 ft 93 kts
2026-05-07 15:26 29.64621 35.03302 2666 ft 93 kts
2026-05-07 15:27 29.65201 35.03547 2954 ft 89 kts
2026-05-07 15:27 29.65774 35.03777 3250 ft 86 kts
2026-05-07 15:27 29.66343 35.04006 3478 ft 91 kts
2026-05-07 15:27 29.67010 35.04237 3516 ft 107 kts
2026-05-07 15:28 29.67696 35.04449 3516 ft 115 kts
2026-05-07 15:28 29.68484 35.04671 3515 ft 118 kts
2026-05-07 15:28 29.69287 35.04823 3514 ft 119 kts
2026-05-07 15:28 29.70110 35.04970 3513 ft 120 kts
2026-05-07 15:29 29.70947 35.05119 3513 ft 120 kts
2026-05-07 15:29 29.71768 35.05321 3512 ft 122 kts
2026-05-07 15:29 29.72586 35.05567 3512 ft 122 kts
2026-05-07 15:29 29.73402 35.05816 3512 ft 122 kts
2026-05-07 15:30 29.74231 35.06070 3512 ft 122 kts
2026-05-07 15:30 29.75040 35.06322 3512 ft 122 kts
2026-05-07 15:30 29.75858 35.06585 3512 ft 122 kts
2026-05-07 15:30 29.76677 35.06849 3512 ft 122 kts
2026-05-07 15:31 29.77490 35.07111 3512 ft 122 kts
2026-05-07 15:31 29.78309 35.07376 3512 ft 122 kts
2026-05-07 15:31 29.79129 35.07654 3511 ft 123 kts 10°
2026-05-07 15:31 29.79935 35.07988 3512 ft 124 kts 11°
2026-05-07 15:32 29.80734 35.08313 3513 ft 124 kts
2026-05-07 15:32 29.81555 35.08653 3512 ft 125 kts 12°
2026-05-07 15:32 29.82361 35.09011 3512 ft 125 kts 12°
2026-05-07 15:32 29.83169 35.09371 3512 ft 125 kts 12°
2026-05-07 15:33 29.83970 35.09746 3512 ft 125 kts 13°
2026-05-07 15:33 29.84724 35.10118 3512 ft 126 kts 14°
2026-05-07 15:33 29.85530 35.10519 3512 ft 126 kts 14°
2026-05-07 15:33 29.86313 35.10910 3512 ft 126 kts 14°
2026-05-07 15:34 29.87124 35.11318 3512 ft 126 kts 15°
2026-05-07 15:34 29.87913 35.11731 3512 ft 126 kts 15°
2026-05-07 15:34 29.88707 35.12148 3512 ft 126 kts 15°
2026-05-07 15:34 29.89502 35.12564 3512 ft 125 kts 14°
2026-05-07 15:35 29.90298 35.12920 3512 ft 123 kts 10°
2026-05-07 15:35 29.91106 35.13248 3512 ft 123 kts 10°
2026-05-07 15:35 29.91919 35.13577 3512 ft 123 kts 10°
2026-05-07 15:35 29.92723 35.13902 3512 ft 123 kts 10°
2026-05-07 15:36 29.93532 35.14229 3531 ft 121 kts 10°
2026-05-07 15:36 29.94258 35.14538 3794 ft 110 kts 10°
2026-05-07 15:36 29.94967 35.14850 4040 ft 108 kts 10°
2026-05-07 15:36 29.95657 35.15158 4283 ft 107 kts 10°
2026-05-07 15:37 29.96348 35.15472 4529 ft 107 kts 10°
2026-05-07 15:37 29.97042 35.15790 4777 ft 108 kts 10°
2026-05-07 15:37 29.97743 35.16112 5027 ft 108 kts 10°
2026-05-07 15:37 29.98441 35.16436 5275 ft 109 kts 10°
2026-05-07 15:38 29.99142 35.16765 5522 ft 110 kts 13°
2026-05-07 15:38 29.99693 35.17435 5754 ft 126 kts 57°
2026-05-07 15:38 29.99811 35.18457 5998 ft 131 kts 89°
2026-05-07 15:38 29.99819 35.19501 6248 ft 130 kts 85°
2026-05-07 15:39 29.99839 35.20539 6496 ft 130 kts 85°
2026-05-07 15:39 29.99865 35.21571 6744 ft 130 kts 85°
2026-05-07 15:39 29.99898 35.22610 6967 ft 132 kts 85°
2026-05-07 15:39 29.99937 35.23720 7014 ft 145 kts 88°
2026-05-07 15:40 29.99940 35.24904 7015 ft 150 kts 88°
2026-05-07 15:40 29.99942 35.26120 7015 ft 152 kts 89°
2026-05-07 15:40 29.99945 35.27346 7015 ft 153 kts 88°
2026-05-07 15:40 29.99959 35.28537 7014 ft 153 kts 88°
2026-05-07 15:41 29.99974 35.29779 7014 ft 153 kts 88°
2026-05-07 15:41 29.99989 35.30987 7014 ft 153 kts 88°
2026-05-07 15:41 30.00003 35.32203 7014 ft 152 kts 88°
2026-05-07 15:41 30.00017 35.33425 7014 ft 151 kts 88°
2026-05-07 15:42 30.00031 35.34633 7014 ft 151 kts 88°
2026-05-07 15:42 30.00045 35.35851 7015 ft 152 kts 88°
2026-05-07 15:42 30.00058 35.37072 7014 ft 151 kts 88°
2026-05-07 15:42 30.00071 35.38267 7014 ft 151 kts 88°
2026-05-07 15:43 30.00084 35.39445 7015 ft 152 kts 88°
2026-05-07 15:43 30.00097 35.40663 7015 ft 153 kts 88°
2026-05-07 15:43 30.00109 35.41884 7015 ft 153 kts 88°
2026-05-07 15:43 30.00122 35.43115 7015 ft 153 kts 88°
2026-05-07 15:44 30.00126 35.44346 7015 ft 153 kts 89°
2026-05-07 15:44 30.00135 35.45584 7015 ft 153 kts 86°
2026-05-07 15:44 30.00164 35.46799 7014 ft 153 kts 89°
2026-05-07 15:44 29.99898 35.47973 7006 ft 151 kts 127°
2026-05-07 15:45 29.99115 35.48668 7006 ft 140 kts 169°
2026-05-07 15:45 29.98228 35.48644 7010 ft 126 kts 206°
2026-05-07 15:45 29.97463 35.48215 7013 ft 121 kts 220°
2026-05-07 15:45 29.96772 35.47655 7015 ft 121 kts 221°
2026-05-07 15:46 29.95395 35.46573 7015 ft 121 kts 221°
2026-05-07 15:46 29.94713 35.46028 7015 ft 122 kts 221°
2026-05-07 15:46 29.94020 35.45472 7015 ft 121 kts 221°
2026-05-07 15:47 29.93368 35.44951 7014 ft 120 kts 221°
2026-05-07 15:47 29.92678 35.44399 7015 ft 120 kts 221°
2026-05-07 15:47 29.91992 35.43850 7015 ft 121 kts 221°
2026-05-07 15:47 29.91347 35.43332 7015 ft 123 kts 221°
2026-05-07 15:48 29.90641 35.42764 7015 ft 122 kts 221°
2026-05-07 15:48 29.89957 35.42221 7015 ft 122 kts 220°
2026-05-07 15:48 29.89273 35.41693 7015 ft 121 kts 220°
2026-05-07 15:48 29.88600 35.41174 7015 ft 121 kts 220°
2026-05-07 15:49 29.87901 35.40635 7015 ft 121 kts 220°
2026-05-07 15:49 29.87199 35.40093 7015 ft 121 kts 220°
2026-05-07 15:49 29.86502 35.39556 7015 ft 121 kts 220°
2026-05-07 15:49 29.85805 35.39006 7015 ft 121 kts 221°
2026-05-07 15:50 29.85138 35.38470 7015 ft 121 kts 221°
2026-05-07 15:50 29.84710 35.38127 7015 ft 121 kts 221°
2026-05-07 15:50 29.83829 35.37417 7015 ft 121 kts 221°
2026-05-07 15:50 29.83224 35.36929 7015 ft 121 kts 221°
2026-05-07 15:51 29.82593 35.36414 7014 ft 120 kts 224°
2026-05-07 15:51 29.81951 35.35827 7014 ft 119 kts 226°
2026-05-07 15:51 29.81344 35.35234 7015 ft 119 kts 227°
2026-05-07 15:51 29.80722 35.34622 7015 ft 119 kts 227°
2026-05-07 15:52 29.80096 35.34006 7015 ft 120 kts 227°
2026-05-07 15:52 29.79463 35.33380 7015 ft 120 kts 227°
2026-05-07 15:52 29.78836 35.32761 7015 ft 120 kts 227°
2026-05-07 15:52 29.78197 35.32130 7014 ft 121 kts 227°
2026-05-07 15:53 29.77582 35.31521 7014 ft 121 kts 227°
2026-05-07 15:53 29.76940 35.30921 7015 ft 121 kts 224°
2026-05-07 15:53 29.76242 35.30358 7015 ft 123 kts 218°
2026-05-07 15:53 29.75676 35.29964 7015 ft 123 kts 218°
2026-05-07 15:54 29.74986 35.29488 7014 ft 123 kts 218°
2026-05-07 15:54 29.74254 35.28983 7014 ft 123 kts 218°
2026-05-07 15:54 29.73520 35.28478 7014 ft 123 kts 218°
2026-05-07 15:54 29.72825 35.28001 7014 ft 123 kts 217°
2026-05-07 15:55 29.72079 35.27507 7014 ft 124 kts 217°
2026-05-07 15:55 29.71326 35.27008 7014 ft 124 kts 217°
2026-05-07 15:55 29.70584 35.26517 7014 ft 124 kts 217°
2026-05-07 15:55 29.69847 35.26030 7014 ft 124 kts 217°
2026-05-07 15:56 29.69092 35.25531 7014 ft 124 kts 217°
2026-05-07 15:56 29.68351 35.25040 7014 ft 124 kts 217°
2026-05-07 15:56 29.67614 35.24540 7013 ft 123 kts 220°
2026-05-07 15:56 29.66928 35.23968 7014 ft 121 kts 224°
2026-05-07 15:57 29.66259 35.23380 7014 ft 121 kts 224°
2026-05-07 15:57 29.65590 35.22787 7014 ft 121 kts 224°
2026-05-07 15:57 29.64924 35.22197 7014 ft 121 kts 224°
2026-05-07 15:57 29.64251 35.21601 7014 ft 121 kts 224°
2026-05-07 15:58 29.63582 35.21009 7014 ft 121 kts 224°
2026-05-07 15:58 29.62911 35.20414 7014 ft 121 kts 224°
2026-05-07 15:58 29.62226 35.19863 7015 ft 123 kts 220°
2026-05-07 15:58 29.61496 35.19330 7014 ft 123 kts 219°
2026-05-07 15:59 29.60778 35.18798 7014 ft 122 kts 221°
2026-05-07 15:59 29.60082 35.18253 7014 ft 122 kts 221°
2026-05-07 15:59 29.59387 35.17701 7014 ft 122 kts 222°
2026-05-07 15:59 29.58702 35.17141 7014 ft 122 kts 222°
2026-05-07 16:00 29.58027 35.16587 7014 ft 122 kts 222°
2026-05-07 16:00 29.57286 35.15978 7014 ft 122 kts 222°
2026-05-07 16:00 29.56603 35.15417 7014 ft 122 kts 222°
2026-05-07 16:00 29.55930 35.14863 7014 ft 122 kts 222°
2026-05-07 16:01 29.55282 35.14330 7014 ft 122 kts 222°
2026-05-07 16:01 29.54594 35.13763 7014 ft 122 kts 222°
2026-05-07 16:01 29.53915 35.13205 7014 ft 122 kts 222°
2026-05-07 16:01 29.53227 35.12638 7014 ft 122 kts 222°
2026-05-07 16:02 29.52541 35.12073 7014 ft 122 kts 222°
2026-05-07 16:02 29.51850 35.11503 7014 ft 122 kts 222°
2026-05-07 16:02 29.51166 35.10939 7014 ft 122 kts 223°
2026-05-07 16:02 29.50482 35.10375 7014 ft 122 kts 223°
2026-05-07 16:03 29.49804 35.09815 6966 ft 123 kts 223°
2026-05-07 16:03 29.49139 35.09267 6662 ft 121 kts 224°
2026-05-07 16:03 29.48489 35.08667 6367 ft 123 kts 226°
2026-05-07 16:03 29.48227 35.08414 6246 ft 123 kts 229°
2026-05-07 16:04 29.47973 35.08097 6106 ft 120 kts 241°
2026-05-07 16:04 29.47672 35.07273 5820 ft 118 kts 256°
2026-05-07 16:04 29.47531 35.06367 5490 ft 116 kts 269°
2026-05-07 16:04 29.47481 35.05461 5143 ft 114 kts 270°
2026-05-07 16:05 29.47433 35.04631 4789 ft 94 kts 271°
2026-05-07 16:05 29.47371 35.03960 4431 ft 82 kts 270°
2026-05-07 16:05 29.47344 35.03589 4226 ft 80 kts 275°
2026-05-07 16:05 29.47336 35.02966 3877 ft 79 kts 277°
2026-05-07 16:06 29.47327 35.02337 3523 ft 80 kts 273°
2026-05-07 16:06 29.47213 35.01716 3178 ft 82 kts 267°
2026-05-07 16:06 29.47069 35.01082 2835 ft 82 kts 266°
2026-05-07 16:06 29.46908 35.00310 2590 ft 116 kts 266°
2026-05-07 16:07 29.46886 34.99363 2308 ft 122 kts 295°
2026-05-07 16:07 29.47446 34.98720 2058 ft 121 kts 337°
2026-05-07 16:07 29.48244 34.98654 2013 ft 112 kts 358°
2026-05-07 16:07 29.48944 34.98814 2008 ft 103 kts
2026-05-07 16:08 29.49605 34.99034 2010 ft 100 kts 10°
2026-05-07 16:08 29.50081 34.99234 2012 ft 98 kts 11°
2026-05-07 16:08 29.50677 34.99469 1981 ft 100 kts 10°
2026-05-07 16:08 29.51328 34.99686 1984 ft 99 kts
2026-05-07 16:09 29.52008 34.99826 1979 ft 101 kts
2026-05-07 16:09 29.52714 35.00022 1876 ft 108 kts 11°
2026-05-07 16:09 29.53364 35.00322 1775 ft 93 kts 14°
2026-05-07 16:09 29.53912 35.00548 1611 ft 76 kts
2026-05-07 16:10 29.56497 35.00671 889 ft 67 kts 354°
2026-05-07 16:10 29.56940 35.00626 751 ft 64 kts 351°
2026-05-07 16:10 29.57384 35.00623 625 ft 62 kts 359°
2026-05-07 16:10 29.57800 35.00709 587 ft 66 kts
2026-05-07 16:11 29.58393 35.00883 524 ft 67 kts
2026-05-07 16:11 29.58792 35.01006 430 ft 56 kts
2026-05-07 16:11 29.59150 35.01115 348 ft 51 kts
2026-05-07 16:11 29.59497 35.01233 291 ft 53 kts
2026-05-07 16:12 29.59865 35.01356 213 ft 55 kts
2026-05-07 16:12 29.60237 35.01483 196 ft 66 kts
2026-05-07 16:12 29.60711 35.01660 473 ft 77 kts
2026-05-07 16:12 29.61240 35.01832 718 ft 87 kts
2026-05-07 16:13 29.61839 35.02042 1009 ft 88 kts 11°
2026-05-07 16:13 29.62400 35.02253 1249 ft 88 kts
2026-05-07 16:13 29.62434 35.02265 1261 ft 88 kts
2026-05-07 16:15 29.62593 35.02325 1317 ft 89 kts
2026-05-07 16:15 29.62975 35.02468 1471 ft 90 kts
2026-05-07 16:16 29.63135 35.02526 1543 ft 89 kts
2026-05-07 16:17 29.63342 35.02597 1628 ft 90 kts
2026-05-07 16:17 29.63914 35.02778 1869 ft 89 kts
2026-05-07 16:18 29.64523 35.02956 2116 ft 90 kts
2026-05-07 16:18 29.65129 35.03139 2350 ft 92 kts
2026-05-07 16:18 29.65757 35.03338 2535 ft 96 kts
2026-05-07 16:18 29.66398 35.03573 2736 ft 100 kts 10°
2026-05-07 16:19 29.67062 35.03831 2969 ft 100 kts
2026-05-07 16:19 29.67737 35.04073 3199 ft 102 kts
2026-05-07 16:19 29.68380 35.04327 3364 ft 105 kts
2026-05-07 16:20 29.68852 35.04472 3451 ft 108 kts
2026-05-07 16:20 29.69567 35.04662 3656 ft 106 kts
2026-05-07 16:20 29.69955 35.04765 3810 ft 102 kts
2026-05-07 16:21 29.70056 35.04793 3859 ft 101 kts
2026-05-07 16:21 29.70126 35.04814 3887 ft 101 kts
2026-05-07 16:21 29.70801 35.05042 4137 ft 101 kts
2026-05-07 16:21 29.71481 35.05233 4386 ft 100 kts
2026-05-07 16:22 29.72129 35.05441 4694 ft 100 kts
2026-05-07 16:22 29.72241 35.05469 4699 ft 104 kts
2026-05-07 16:22 29.72890 35.05611 4631 ft 124 kts
2026-05-07 16:22 29.73773 35.05800 4512 ft 136 kts
2026-05-07 16:23 29.74687 35.06094 4388 ft 138 kts
2026-05-07 16:23 29.75266 35.06284 4372 ft 135 kts
2026-05-07 16:23 29.76139 35.06604 4416 ft 131 kts
2026-05-07 16:23 29.76999 35.06936 4463 ft 129 kts
2026-05-07 16:24 29.77717 35.07222 4500 ft 129 kts 10°
2026-05-07 16:24 29.78603 35.07587 4512 ft 131 kts 11°
2026-05-07 16:24 29.79389 35.08155 4526 ft 142 kts 44°
2026-05-07 16:24 29.79693 35.09246 4608 ft 149 kts 84°
2026-05-07 16:25 29.79594 35.10370 4842 ft 142 kts 93°
2026-05-07 16:25 29.79471 35.11478 5087 ft 138 kts 94°
2026-05-07 16:25 29.79172 35.12516 5324 ft 136 kts 126°
2026-05-07 16:25 29.78605 35.13371 5573 ft 134 kts 131°
2026-05-07 16:26 29.78033 35.14208 5821 ft 133 kts 131°
2026-05-07 16:26 29.77476 35.15032 6067 ft 132 kts 131°
2026-05-07 16:26 29.76932 35.15848 6312 ft 130 kts 131°
2026-05-07 16:26 29.76575 35.16389 6475 ft 130 kts 131°
2026-05-07 16:27 29.75861 35.17489 6808 ft 128 kts 131°
2026-05-07 16:27 29.75341 35.18302 6987 ft 133 kts 131°
2026-05-07 16:27 29.74781 35.19199 7016 ft 145 kts 127°
2026-05-07 16:27 29.74235 35.20182 7016 ft 149 kts 126°
2026-05-07 16:28 29.73676 35.21189 7015 ft 150 kts 126°
2026-05-07 16:28 29.73124 35.22215 7015 ft 152 kts 121°
2026-05-07 16:28 29.72692 35.23301 7015 ft 153 kts 115°
2026-05-07 16:28 29.72332 35.24470 7015 ft 154 kts 110°
2026-05-07 16:29 29.72004 35.25635 7014 ft 154 kts 110°
2026-05-07 16:29 29.71698 35.26807 7015 ft 155 kts 107°
2026-05-07 16:29 29.71440 35.27996 7015 ft 155 kts 104°
2026-05-07 16:29 29.71188 35.29200 7014 ft 155 kts 104°
2026-05-07 16:30 29.71011 35.30416 7016 ft 155 kts 94°
2026-05-07 16:30 29.70932 35.31666 7015 ft 155 kts 92°
2026-05-07 16:30 29.70867 35.32901 7014 ft 155 kts 94°
2026-05-07 16:30 29.70776 35.34140 7014 ft 155 kts 95°
2026-05-07 16:31 29.70684 35.35372 7014 ft 155 kts 95°
2026-05-07 16:31 29.70576 35.36601 7015 ft 155 kts 96°
2026-05-07 16:31 29.70468 35.37832 7015 ft 155 kts 96°
2026-05-07 16:31 29.70401 35.38593 7015 ft 155 kts 96°
2026-05-07 16:32 29.70360 35.39057 7015 ft 155 kts 96°
2026-05-07 16:32 29.70250 35.40302 7015 ft 155 kts 96°
2026-05-07 16:33 29.70142 35.41526 7015 ft 155 kts 96°
2026-05-07 16:33 29.70031 35.42771 7015 ft 155 kts 96°
2026-05-07 16:33 29.69921 35.44010 7015 ft 155 kts 96°
2026-05-07 16:33 29.69843 35.44888 7015 ft 155 kts 96°
2026-05-07 16:34 29.69734 35.46114 7015 ft 155 kts 96°
2026-05-07 16:34 29.69668 35.47362 7012 ft 155 kts 81°
2026-05-07 16:34 29.70165 35.48391 7017 ft 145 kts 32°
2026-05-07 16:34 29.71029 35.48734 7018 ft 130 kts 348°
2026-05-07 16:35 29.71763 35.48302 7018 ft 116 kts 302°
2026-05-07 16:35 29.71997 35.47477 7020 ft 113 kts 275°
2026-05-07 16:35 29.72035 35.46580 7016 ft 113 kts 272°
2026-05-07 16:35 29.72237 35.43874 7016 ft 113 kts 274°
2026-05-07 16:36 29.72375 35.41094 7013 ft 114 kts 252°
2026-05-07 16:36 29.71778 35.40476 7018 ft 126 kts 205°
2026-05-07 16:36 29.70893 35.40583 7018 ft 141 kts 160°
2026-05-07 16:36 29.70233 35.41439 7018 ft 151 kts 114°
2026-05-07 16:37 29.70082 35.42641 7018 ft 153 kts 93°
2026-05-07 16:37 29.70002 35.43869 7015 ft 153 kts 94°
2026-05-07 16:37 29.69918 35.45089 7015 ft 153 kts 94°
2026-05-07 16:37 29.69741 35.47235 7015 ft 153 kts 96°
2026-05-07 16:38 29.69908 35.48380 7016 ft 149 kts 55°
2026-05-07 16:38 29.70647 35.49086 7018 ft 136 kts
2026-05-07 16:38 29.71465 35.49042 7018 ft 121 kts 326°
2026-05-07 16:38 29.71955 35.48370 7020 ft 112 kts 283°
2026-05-07 16:39 29.72069 35.47503 7018 ft 112 kts 274°
2026-05-07 16:39 29.72129 35.46605 7016 ft 112 kts 273°
2026-05-07 16:39 29.72182 35.45719 7015 ft 112 kts 272°
2026-05-07 16:39 29.72236 35.44820 7015 ft 112 kts 272°
2026-05-07 16:40 29.72288 35.43935 7015 ft 112 kts 272°
2026-05-07 16:40 29.72342 35.43037 7015 ft 111 kts 272°
2026-05-07 16:40 29.72400 35.42069 7015 ft 111 kts 272°
2026-05-07 16:40 29.72337 35.41100 7013 ft 114 kts 245°
2026-05-07 16:41 29.71677 35.40573 7018 ft 127 kts 199°
2026-05-07 16:41 29.70784 35.40803 7018 ft 142 kts 153°
2026-05-07 16:41 29.70206 35.41756 7018 ft 151 kts 106°
2026-05-07 16:41 29.70122 35.42957 7018 ft 152 kts 91°
2026-05-07 16:42 29.70101 35.44176 7016 ft 152 kts 90°
2026-05-07 16:42 29.70085 35.45392 7015 ft 152 kts 90°
2026-05-07 16:42 29.70069 35.46610 7015 ft 152 kts 90°
2026-05-07 16:42 29.70054 35.47818 7015 ft 152 kts 90°
2026-05-07 16:43 29.70037 35.49033 7015 ft 152 kts 91°
2026-05-07 16:43 29.69695 35.50143 7006 ft 148 kts 133°
2026-05-07 16:43 29.68869 35.50741 7007 ft 135 kts 174°
2026-05-07 16:43 29.67964 35.50887 7011 ft 128 kts 186°
2026-05-07 16:44 29.67100 35.50867 7014 ft 126 kts 190°
2026-05-07 16:44 29.66218 35.50829 7015 ft 126 kts 190°
2026-05-07 16:44 29.65348 35.50789 7015 ft 126 kts 190°
2026-05-07 16:44 29.64488 35.50750 7015 ft 126 kts 190°
2026-05-07 16:45 29.63615 35.50709 7015 ft 126 kts 191°
2026-05-07 16:45 29.62740 35.50670 7015 ft 126 kts 191°
2026-05-07 16:45 29.61882 35.50657 7013 ft 130 kts 179°
2026-05-07 16:45 29.61127 35.51192 7018 ft 143 kts 133°
2026-05-07 16:46 29.60766 35.52285 7020 ft 147 kts 102°
2026-05-07 16:46 29.60577 35.53452 7016 ft 148 kts 101°
2026-05-07 16:46 29.60399 35.54615 7016 ft 148 kts 100°
2026-05-07 16:46 29.60205 35.55774 7011 ft 147 kts 109°
2026-05-07 16:47 29.59637 35.56647 7008 ft 140 kts 152°
2026-05-07 16:47 29.58834 35.56921 7007 ft 128 kts 190°
2026-05-07 16:47 29.58396 35.56799 7007 ft 121 kts 212°
2026-05-07 16:48 29.57992 35.56408 7007 ft 114 kts 240°
2026-05-07 16:48 29.57838 35.55721 7006 ft 111 kts 274°
2026-05-07 16:48 29.58033 35.55002 7015 ft 110 kts 281°
2026-05-07 16:49 29.58209 35.54184 7016 ft 112 kts 281°
2026-05-07 16:49 29.58350 35.53492 7016 ft 113 kts 279°
2026-05-07 16:49 29.58473 35.52831 7016 ft 113 kts 279°
2026-05-07 16:49 29.58611 35.52087 7016 ft 114 kts 279°
2026-05-07 16:50 29.58923 35.51305 7005 ft 119 kts 310°
2026-05-07 16:50 29.59438 35.51006 7006 ft 128 kts 339°
2026-05-07 16:50 29.59598 35.50981 7005 ft 131 kts 346°
2026-05-07 16:50 29.60475 35.51276 7006 ft 144 kts 26°
2026-05-07 16:51 29.61335 35.51728 7020 ft 134 kts 359°
2026-05-07 16:51 29.62243 35.51729 7018 ft 130 kts 346°
2026-05-07 16:51 29.63144 35.51636 7016 ft 130 kts 345°
2026-05-07 16:51 29.64038 35.51537 7015 ft 130 kts 345°
2026-05-07 16:52 29.64938 35.51437 7015 ft 130 kts 345°
2026-05-07 16:52 29.65843 35.51337 7015 ft 130 kts 345°
2026-05-07 16:52 29.66743 35.51237 7015 ft 130 kts 345°
2026-05-07 16:52 29.67638 35.51138 7015 ft 130 kts 345°
2026-05-07 16:53 29.68534 35.51039 7015 ft 130 kts 345°
2026-05-07 16:53 29.69429 35.50940 7015 ft 130 kts 345°
2026-05-07 16:53 29.70227 35.50594 7016 ft 118 kts 307°
2026-05-07 16:53 29.70511 35.49754 7020 ft 113 kts 276°
2026-05-07 16:54 29.70594 35.48843 7016 ft 114 kts 273°
2026-05-07 16:54 29.70656 35.47945 7015 ft 114 kts 273°
2026-05-07 16:54 29.70673 35.47032 7016 ft 114 kts 267°
2026-05-07 16:54 29.70629 35.46137 7015 ft 114 kts 266°
2026-05-07 16:55 29.70579 35.45222 7015 ft 114 kts 266°
2026-05-07 16:55 29.70523 35.44420 7016 ft 114 kts 262°
2026-05-07 16:55 29.70351 35.43457 7015 ft 114 kts 259°
2026-05-07 16:55 29.70181 35.42574 7015 ft 114 kts 258°
2026-05-07 16:56 29.70027 35.41775 7015 ft 114 kts 258°
2026-05-07 16:56 29.69846 35.40844 7015 ft 114 kts 258°
2026-05-07 16:56 29.69501 35.39058 7015 ft 114 kts 259°
2026-05-07 16:57 29.69330 35.38173 7015 ft 114 kts 259°
2026-05-07 16:57 29.69233 35.37286 7013 ft 113 kts 269°
2026-05-07 16:57 29.69242 35.36385 7014 ft 113 kts 270°
2026-05-07 16:57 29.69260 35.35477 7015 ft 113 kts 270°
2026-05-07 16:58 29.69279 35.34575 7015 ft 113 kts 270°
2026-05-07 16:58 29.69299 35.33675 7015 ft 113 kts 270°
2026-05-07 16:58 29.69313 35.32902 7015 ft 113 kts 270°
2026-05-07 16:58 29.69363 35.32048 7013 ft 114 kts 277°
2026-05-07 16:59 29.69505 35.31158 7014 ft 114 kts 278°
2026-05-07 16:59 29.69656 35.30264 7014 ft 114 kts 279°
2026-05-07 16:59 29.69977 35.28342 7014 ft 113 kts 274°
2026-05-07 16:59 29.68645 35.25371 7033 ft 118 kts 232°
2026-05-07 17:00 29.67947 35.24834 7018 ft 123 kts 218°
2026-05-07 17:00 29.67260 35.24263 7014 ft 121 kts 223°
2026-05-07 17:00 29.66581 35.23682 7014 ft 121 kts 223°
2026-05-07 17:00 29.65913 35.23108 7014 ft 121 kts 223°
2026-05-07 17:01 29.65237 35.22527 7014 ft 121 kts 223°
2026-05-07 17:01 29.64567 35.21951 7014 ft 121 kts 223°
2026-05-07 17:01 29.63923 35.21335 7014 ft 120 kts 227°
2026-05-07 17:01 29.63293 35.20702 7014 ft 120 kts 227°
2026-05-07 17:02 29.62666 35.20070 7014 ft 120 kts 227°
2026-05-07 17:02 29.62045 35.19444 7014 ft 120 kts 227°
2026-05-07 17:02 29.61418 35.18816 7014 ft 120 kts 225°
2026-05-07 17:02 29.60770 35.18210 7014 ft 120 kts 225°
2026-05-07 17:03 29.60128 35.17610 7014 ft 120 kts 225°
2026-05-07 17:03 29.59475 35.17000 7014 ft 120 kts 225°
2026-05-07 17:03 29.58834 35.16401 7014 ft 120 kts 225°
2026-05-07 17:03 29.58162 35.15815 7015 ft 121 kts 220°
2026-05-07 17:04 29.57461 35.15274 7014 ft 122 kts 220°
2026-05-07 17:04 29.56756 35.14734 7014 ft 122 kts 220°
2026-05-07 17:04 29.56052 35.14194 7014 ft 122 kts 220°
2026-05-07 17:04 29.55339 35.13669 7014 ft 122 kts 218°
2026-05-07 17:05 29.54614 35.13157 7014 ft 122 kts 218°
2026-05-07 17:05 29.53896 35.12650 7013 ft 122 kts 218°
2026-05-07 17:05 29.53180 35.12145 6814 ft 122 kts 218°
2026-05-07 17:05 29.52450 35.11633 6541 ft 125 kts 218°
2026-05-07 17:06 29.51703 35.11111 6268 ft 127 kts 218°
2026-05-07 17:06 29.51087 35.10437 5986 ft 122 kts 241°
2026-05-07 17:06 29.50621 35.09624 5711 ft 122 kts 243°
2026-05-07 17:06 29.50168 35.08806 5437 ft 122 kts 245°
2026-05-07 17:07 29.49765 35.07977 5163 ft 121 kts 247°
2026-05-07 17:07 29.49363 35.07142 4868 ft 122 kts 248°
2026-05-07 17:07 29.48943 35.06280 4566 ft 123 kts 248°
2026-05-07 17:07 29.48587 35.05559 4312 ft 123 kts 248°
2026-05-07 17:08 29.48149 35.04685 4001 ft 122 kts 248°
2026-05-07 17:08 29.47770 35.03820 3699 ft 121 kts 254°
2026-05-07 17:08 29.47469 35.02924 3397 ft 120 kts 258°
2026-05-07 17:08 29.47197 35.02026 3099 ft 121 kts 258°
2026-05-07 17:09 29.46919 35.01112 2799 ft 122 kts 258°
2026-05-07 17:09 29.46640 35.00202 2501 ft 122 kts 259°
2026-05-07 17:09 29.46568 34.98619 2032 ft 105 kts 303°
2026-05-07 17:09 29.47052 34.98181 2005 ft 93 kts 342°
2026-05-07 17:10 29.47686 34.98230 2015 ft 98 kts
2026-05-07 17:10 29.48325 34.98448 2011 ft 93 kts
2026-05-07 17:10 29.49665 34.98959 2011 ft 91 kts
2026-05-07 17:10 29.50229 34.99148 2013 ft 88 kts
2026-05-07 17:11 29.51741 34.99497 2012 ft 87 kts
2026-05-07 17:11 29.52307 34.99737 1709 ft 86 kts 15°
2026-05-07 17:11 29.56521 35.00762 777 ft 66 kts 355°
2026-05-07 17:11 29.59105 35.01125 343 ft 60 kts
2026-05-07 17:12 29.59454 35.01224 298 ft 57 kts
2026-05-07 17:12 29.59839 35.01350 217 ft 54 kts
2026-05-07 17:12 29.60150 35.01457 177 ft 54 kts 11°
2026-05-07 17:12 29.60397 35.01537 177 ft 40 kts 12°
2026-05-07 17:13 29.60511 35.01575 177 ft 29 kts 11°
2026-05-07 17:13 29.60914 35.01731 177 ft 18 kts 47°
2026-05-07 17:13 29.60931 35.01833 177 ft 15 kts 109°
2026-05-07 17:13 29.60713 35.01841 177 ft 15 kts 196°
2026-05-07 17:14 29.60022 35.01601 177 ft 16 kts 201°
2026-05-07 17:14 29.59857 35.01566 177 ft 15 kts 126°
2026-05-07 17:14 29.59822 35.01594 177 ft 4 kts 163°
2026-05-07 17:14 29.59819 35.01598 177 ft 0 kts 103°